This demonstration page uses our WeatherBlox Daily Observations layout. Learn more.

Left ArrowRight Arrow

39.08367, -84.50855

Hourly Observations for March 1, 2020

Temp ( °F °C ) Dew Point ( °F °C ) Humidity (%) Winds ( mph kmh ) Pressure ( in mb ) Visibility ( mi km ) Precip ( " mm )
12:53 am 00:53 Clear 21 -6.1 18 -7.8 88 88 N N/A 30.25 1024 10 16 N/A
1:53 am 01:53 Clear 22 -5.6 18 -7.8 85 85 N N/A 30.25 1024 10 16 N/A
2:53 am 02:53 Clear 22 -5.6 19 -7.2 89 89 N N/A 30.24 1024 10 16 N/A
3:53 am 03:53 Clear 20 -6.7 17 -8.3 89 89 N N/A 30.22 1024 10 16 N/A
4:53 am 04:53 Clear 21 -6.1 18 -7.8 88 88 N N/A 30.22 1024 10 16 N/A
5:53 am 05:53 Clear 20 -6.7 18 -7.8 92 92 N N/A 30.22 1023 10 16 N/A
6:53 am 06:53 Clear 21 -6.1 18 -7.8 88 88 N N/A 30.22 1023 10 16 N/A
7:53 am 07:53 Sunny 22 -5.6 20 -6.7 92 92 N N/A 30.22 1024 9 14 N/A
8:53 am 08:53 Sunny 29 -1.7 24 -4.4 82 82 N N/A 30.22 1024 10 16 N/A
9:53 am 09:53 Sunny 36 2.2 21 -6.1 55 55 S 3 6 30.19 1022 10 16 N/A
10:53 am 10:53 Sunny 42 5.6 21 -6.1 43 43 S 6 9 30.17 1022 10 16 N/A
11:53 am 11:53 Sunny 49 9.4 24 -4.4 38 38 S 8 13 30.14 1021 10 16 N/A
12:53 pm 12:53 Sunny 56 13.3 27 -2.8 33 33 S 12 19 30.10 1019 10 16 N/A
1:53 pm 13:53 Sunny 60 15.6 29 -1.7 31 31 S 10 17 30.03 1017 10 16 N/A
2:53 pm 14:53 Sunny 62 16.7 31 -0.6 31 31 S 10 17 30.00 1016 10 16 N/A
3:53 pm 15:53 Sunny 63 17.2 34 1.1 34 34 SSW 17 28 29.98 1015 10 16 N/A
4:53 pm 16:53 Sunny 63 17.2 34 1.1 34 34 S 16 26 29.96 1015 10 16 N/A
5:53 pm 17:53 Sunny 61 16.1 34 1.1 36 36 SSW 14 22 29.95 1014 10 16 N/A
6:53 pm 18:53 Clear 59 15 34 1.1 39 39 S 9 15 29.95 1014 10 16 N/A
7:53 pm 19:53 Clear 58 14.4 34 1.1 41 41 S 10 17 29.94 1014 10 16 N/A
8:53 pm 20:53 Cloudy 58 14.4 35 1.7 42 42 SSW 12 19 29.94 1014 10 16 N/A
9:53 pm 21:53 Mostly Cloudy 52 11.1 35 1.7 53 53 SSW 7 11 29.94 1014 10 16 N/A
10:53 pm 22:53 Cloudy 54 12.2 36 2.2 51 51 SSW 8 13 29.93 1014 10 16 N/A
11:53 pm 23:53 Cloudy 58 14.4 35 1.7 42 42 SSW 14 22 29.93 1014 10 16 N/A

Powered by AerisWeather